,,Stat6,,Stat2,,Stat8,,Stat9,,Stat10,,Wind1,,Wind1,
time,status,PA1M_AVG,status,PR1M_SUM,status,RH1M_AVG,status,SR1M_AVG,status,TA1M_AVG,status,W1dAve1m,status,W1sAve1m,
2009-07-20, 00:00:00,VALID,918.505,VALID,0,VALID,100,VALID,-0.0339617,VALID,20.5218,VALID,195,VALID,0.884201,
2009-07-20, 00:01:00,VALID,918.478,VALID,0,VALID,100,VALID,-0.101885,VALID,20.5124,VALID,182,VALID,0.81468,
2009-07-20, 00:02:00,VALID,918.466,VALID,0,VALID,100,VALID,-0.0339617,VALID,20.4994,VALID,179,VALID,0.892624,
2009-07-20, 00:03:00,VALID,918.468,VALID,0,VALID,100,VALID,-0.101885,VALID,20.4764,VALID,182,VALID,0.740885,
2009-07-20, 00:04:00,VALID,918.475,VALID,0,VALID,100,VALID,-0.0679233,VALID,20.4637,VALID,185,VALID,0.69455,
2009-07-20, 00:05:00,VALID,918.47,VALID,0,VALID,100,VALID,-0.0849042,VALID,20.4507,VALID,186,VALID,0.544695,
2009-07-20, 00:06:00,VALID,918.454,VALID,0,VALID,100,VALID,-0.0679233,VALID,20.4472,VALID,185,VALID,0.125355,
2009-07-20, 00:07:00,VALID,918.429,VALID,0,VALID,100,VALID,-0.0679233,VALID,20.4439,VALID,185,VALID,0,
2009-07-20, 00:08:00,VALID,918.409,VALID,0,VALID,100,VALID,-0.0849042,VALID,20.3825,VALID,185,VALID,0,
2009-07-20, 00:09:00,VALID,918.395,VALID,0,VALID,100,VALID,-0.0849042,VALID,20.3433,VALID,185,VALID,0,
2009-07-20, 00:10:00,VALID,918.391,VALID,0,VALID,100,VALID,-0.0339617,VALID,20.3433,VALID,185,VALID,0,
2009-07-20, 00:11:00,VALID,918.395,VALID,0,VALID,100,VALID,-0.0679233,VALID,20.3468,VALID,185,VALID,0,
2009-07-20, 00:12:00,VALID,918.393,VALID,0,VALID,100,VALID,-0.0849042,VALID,20.3598,VALID,185,VALID,0,
2009-07-20, 00:13:00,VALID,918.371,VALID,0,VALID,100,VALID,-0.0849042,VALID,20.3728,VALID,185,VALID,0,
2009-07-20, 00:14:00,VALID,918.348,VALID,0,VALID,100,VALID,-0.0509425,VALID,20.3466,VALID,185,VALID,0.45141,
2009-07-20, 00:15:00,VALID,918.331,VALID,0,VALID,100,VALID,-0.0849042,VALID,20.3111,VALID,185,VALID,0.712391,
2009-07-20, 00:16:00,VALID,918.318,VALID,0,VALID,100,VALID,-0.0679233,VALID,20.2952,VALID,185,VALID,0.52935,
2009-07-20, 00:17:00,VALID,918.32,VALID,0,VALID,100,VALID,-0.0169808,VALID,20.2303,VALID,163,VALID,0.555432,
2009-07-20, 00:18:00,VALID,918.308,VALID,0,VALID,100,VALID,-0.0849042,VALID,20.1818,VALID,98,VALID,0.777431,
2009-07-20, 00:19:00,VALID,918.309,VALID,0,VALID,100,VALID,-0.0849042,VALID,20.1653,VALID,97,VALID,0.766959,
2009-07-20, 00:20:00,VALID,918.313,VALID,0,VALID,100,VALID,-0.0849042,VALID,20.1426,VALID,97,VALID,0.664971,
2009-07-20, 00:21:00,VALID,918.325,VALID,0,VALID,100,VALID,-0.0509425,VALID,20.0999,VALID,97,VALID,0.723758,
2009-07-20, 00:22:00,VALID,918.331,VALID,0,VALID,100,VALID,-0.0679233,VALID,20.1127,VALID,97,VALID,0.675781,
2009-07-20, 00:23:00,VALID,918.334,VALID,0,VALID,100,VALID,-0.0679233,VALID,20.1099,VALID,97,VALID,0.569949,
2009-07-20, 00:24:00,VALID,918.323,VALID,0,VALID,100,VALID,-0.0169808,VALID,20.0805,VALID,97,VALID,0.567023,
2009-07-20, 00:25:00,VALID,918.318,VALID,0,VALID,100,VALID,-0.0339617,VALID,20.0999,VALID,97,VALID,0.644077,
2009-07-20, 00:26:00,VALID,918.311,VALID,0,VALID,100,VALID,-0.0679233,VALID,20.1032,VALID,97,VALID,0.714134,
2009-07-20, 00:27:00,VALID,918.297,VALID,0,VALID,100,VALID,-0.0849042,VALID,20.0485,VALID,77,VALID,0.849219,
2009-07-20, 00:28:00,VALID,918.267,VALID,0,VALID,100,VALID,-0.101885,VALID,20.0385,VALID,38,VALID,0.856027,
2009-07-20, 00:29:00,VALID,918.233,VALID,0,VALID,100,VALID,-0.0679233,VALID,19.9963,VALID,38,VALID,0.831759,
2009-07-20, 00:30:00,VALID,918.213,VALID,0,VALID,100,VALID,-0.0849042,VALID,19.9961,VALID,41,VALID,0.504724,
2009-07-20, 00:31:00,VALID,918.198,VALID,0,VALID,100,VALID,-0.0849042,VALID,20.0256,VALID,41,VALID,0.547852,
2009-07-20, 00:32:00,VALID,918.18,VALID,0,VALID,100,VALID,-0.0509425,VALID,20.038,VALID,41,VALID,0.496761,
2009-07-20, 00:33:00,VALID,918.16,VALID,0,VALID,100,VALID,-0.0509425,VALID,20.032,VALID,41,VALID,0.537946,
2009-07-20, 00:34:00,VALID,918.155,VALID,0,VALID,100,VALID,-0.0509425,VALID,20.0255,VALID,41,VALID,0.704241,
2009-07-20, 00:35:00,VALID,918.134,VALID,0,VALID,100,VALID,-0.0679233,VALID,20.0285,VALID,41,VALID,0.639101,
2009-07-20, 00:36:00,VALID,918.128,VALID,0,VALID,100,VALID,-0.0679233,VALID,20.0383,VALID,41,VALID,0.565358,
2009-07-20, 00:37:00,VALID,918.109,VALID,0,VALID,100,VALID,-0.0339617,VALID,20.0707,VALID,41,VALID,0.376817,
2009-07-20, 00:38:00,VALID,918.104,VALID,0,VALID,100,VALID,-0.0169808,VALID,20.1097,VALID,41,VALID,0.526228,
2009-07-20, 00:39:00,VALID,918.09,VALID,0,VALID,100,VALID,-0.0509425,VALID,20.1554,VALID,27,VALID,0.548363,
2009-07-20, 00:40:00,VALID,918.07,VALID,0,VALID,100,VALID,-0.0169808,VALID,20.2105,VALID,1,VALID,0.666061,
2009-07-20, 00:41:00,VALID,918.049,VALID,0,VALID,100,VALID,-0.0849042,VALID,20.2527,VALID,1,VALID,0.72516,
2009-07-20, 00:42:00,VALID,918.018,VALID,0,VALID,100,VALID,-0.0169808,VALID,20.2771,VALID,3,VALID,0.882813,
2009-07-20, 00:43:00,VALID,917.97,VALID,0,VALID,100,VALID,0.0509425,VALID,20.2869,VALID,14,VALID,0.798735,
2009-07-20, 00:44:00,VALID,917.937,VALID,0,VALID,100,VALID,0.0339617,VALID,20.2996,VALID,14,VALID,0.734197,
2009-07-20, 00:45:00,VALID,917.931,VALID,0,VALID,100,VALID,0.0509425,VALID,20.2996,VALID,23,VALID,0.957126,
2009-07-20, 00:46:00,VALID,917.931,VALID,0,VALID,100,VALID,0.0339617,VALID,20.2999,VALID,18,VALID,0.728609,
2009-07-20, 00:47:00,VALID,917.91,VALID,0,VALID,100,VALID,0.0169808,VALID,20.2899,VALID,35,VALID,0.77066,
2009-07-20, 00:48:00,VALID,917.893,VALID,0,VALID,100,VALID,0,VALID,20.2901,VALID,40,VALID,0.849657,
2009-07-20, 00:49:00,VALID,917.884,VALID,0,VALID,100,VALID,0.0169808,VALID,20.2704,VALID,32,VALID,0.754179,
2009-07-20, 00:50:00,VALID,917.877,VALID,0,VALID,100,VALID,0.0169808,VALID,20.2736,VALID,26,VALID,0.614062,
2009-07-20, 00:51:00,VALID,917.882,VALID,0,VALID,100,VALID,0.0509425,VALID,20.2864,VALID,18,VALID,0.474918,
2009-07-20, 00:52:00,VALID,917.879,VALID,0,VALID,100,VALID,0.0169808,VALID,20.2834,VALID,56,VALID,0.658668,
2009-07-20, 00:53:00,VALID,917.876,VALID,0,VALID,100,VALID,-0.0169808,VALID,20.2644,VALID,70,VALID,1.11621,
2009-07-20, 00:54:00,VALID,917.855,VALID,0,VALID,100,VALID,0,VALID,20.2447,VALID,76,VALID,0.895894,
2009-07-20, 00:55:00,VALID,917.83,VALID,0,VALID,100,VALID,0,VALID,20.2152,VALID,73,VALID,0.899554,
2009-07-20, 00:56:00,VALID,917.819,VALID,0,VALID,100,VALID,0.0509425,VALID,20.2185,VALID,61,VALID,1.25069,
2009-07-20, 00:57:00,VALID,917.805,VALID,0,VALID,100,VALID,-0.0679233,VALID,20.2297,VALID,66,VALID,0.892805,
2009-07-20, 00:58:00,VALID,917.81,VALID,0,VALID,100,VALID,-0.0679233,VALID,20.2395,VALID,84,VALID,0.510861,
2009-07-20, 00:59:00,VALID,917.768,VALID,0,VALID,100,VALID,-0.0509425,VALID,20.2362,VALID,79,VALID,0.660061,
2009-07-20, 01:00:00,VALID,917.736,VALID,0,VALID,100,VALID,-0.0849042,VALID,20.2562,VALID,59,VALID,0.556108,
2009-07-20, 01:01:00,VALID,917.722,VALID,0,VALID,100,VALID,-0.0849042,VALID,20.2692,VALID,44,VALID,0.679332,
2009-07-20, 01:02:00,VALID,917.668,VALID,0,VALID,100,VALID,-0.0509425,VALID,20.2884,VALID,34,VALID,0.795703,
2009-07-20, 01:03:00,VALID,917.655,VALID,0,VALID,100,VALID,-0.0509425,VALID,20.3017,VALID,40,VALID,0.557422,
2009-07-20, 01:04:00,VALID,917.652,VALID,0,VALID,100,VALID,-0.0339617,VALID,20.2982,VALID,46,VALID,0.430069,
2009-07-20, 01:05:00,VALID,917.662,VALID,0,VALID,100,VALID,-0.0849042,VALID,20.2557,VALID,61,VALID,0.626116,
2009-07-20, 01:06:00,VALID,917.676,VALID,0,VALID,100,VALID,-0.101885,VALID,20.2395,VALID,61,VALID,0.633878,
2009-07-20, 01:07:00,VALID,917.686,VALID,0,VALID,100,VALID,-0.0509425,VALID,20.2362,VALID,61,VALID,0.583398,
2009-07-20, 01:08:00,VALID,917.7,VALID,0,VALID,100,VALID,-0.0679233,VALID,20.23,VALID,61,VALID,0.470022,
2009-07-20, 01:09:00,VALID,917.748,VALID,0,VALID,100,VALID,-0.101885,VALID,20.2303,VALID,61,VALID,0.0482639,
2009-07-20, 01:10:00,VALID,917.768,VALID,0,VALID,100,VALID,-0.0849042,VALID,20.23,VALID,61,VALID,0,
2009-07-20, 01:11:00,VALID,917.77,VALID,0,VALID,100,VALID,-0.0509425,VALID,20.2073,VALID,61,VALID,0,
2009-07-20, 01:12:00,VALID,917.764,VALID,0,VALID,100,VALID,-0.0849042,VALID,20.1905,VALID,61,VALID,0,
2009-07-20, 01:13:00,VALID,917.739,VALID,0,VALID,100,VALID,-0.0679233,VALID,20.1713,VALID,61,VALID,0,
2009-07-20, 01:14:00,VALID,917.724,VALID,0,VALID,100,VALID,-0.0849042,VALID,20.1583,VALID,61,VALID,0,
2009-07-20, 01:15:00,VALID,917.694,VALID,0,VALID,100,VALID,-0.101885,VALID,20.1519,VALID,61,VALID,0,
2009-07-20, 01:16:00,VALID,917.667,VALID,0,VALID,100,VALID,-0.0679233,VALID,20.1389,VALID,93,VALID,0.63457,
2009-07-20, 01:17:00,VALID,917.63,VALID,0,VALID,100,VALID,-0.0509425,VALID,20.1062,VALID,107,VALID,0.659598,
2009-07-20, 01:18:00,VALID,917.605,VALID,0,VALID,100,VALID,-0.0339617,VALID,20.0867,VALID,107,VALID,0.393674,
2009-07-20, 01:19:00,VALID,917.59,VALID,0,VALID,100,VALID,-0.0509425,VALID,20.0705,VALID,107,VALID,0.388542,
2009-07-20, 01:20:00,VALID,917.579,VALID,0,VALID,100,VALID,-0.118866,VALID,20.0675,VALID,111,VALID,0.441229,
2009-07-20, 01:21:00,VALID,917.586,VALID,0,VALID,100,VALID,-0.0849042,VALID,20.0518,VALID,112,VALID,0.398438,
2009-07-20, 01:22:00,VALID,917.612,VALID,0,VALID,100,VALID,-0.0679233,VALID,20.0415,VALID,127,VALID,0.569196,
2009-07-20, 01:23:00,VALID,917.629,VALID,0,VALID,100,VALID,-0.101885,VALID,20.0385,VALID,127,VALID,0.10174,
2009-07-20, 01:24:00,VALID,917.641,VALID,0,VALID,100,VALID,-0.0849042,VALID,20.0415,VALID,127,VALID,0.355183,
2009-07-20, 01:25:00,VALID,917.627,VALID,0,VALID,100,VALID,-0.0849042,VALID,20.0158,VALID,127,VALID,0.719703,
2009-07-20, 01:26:00,VALID,917.62,VALID,0,VALID,100,VALID,-0.0849042,VALID,19.9734,VALID,111,VALID,0.337798,
2009-07-20, 01:27:00,VALID,917.603,VALID,0,VALID,100,VALID,-0.0169808,VALID,19.9691,VALID,122,VALID,0.389461,
2009-07-20, 01:28:00,VALID,917.605,VALID,0,VALID,100,VALID,0.0339617,VALID,19.9494,VALID,130,VALID,0.359976,
2009-07-20, 01:29:00,VALID,917.598,VALID,0,VALID,100,VALID,0.0509425,VALID,19.9494,VALID,147,VALID,0.805414,
2009-07-20, 01:30:00,VALID,917.582,VALID,0,VALID,100,VALID,0,VALID,19.9429,VALID,150,VALID,0.776414,
2009-07-20, 01:31:00,VALID,917.57,VALID,0,VALID,100,VALID,0.0169808,VALID,19.9362,VALID,145,VALID,0.83631,
2009-07-20, 01:32:00,VALID,917.549,VALID,0,VALID,100,VALID,0.0169808,VALID,19.9427,VALID,130,VALID,0.847751,
2009-07-20, 01:33:00,VALID,917.539,VALID,0,VALID,100,VALID,0.0509425,VALID,19.9294,VALID,145,VALID,0.537464,
2009-07-20, 01:34:00,VALID,917.527,VALID,0,VALID,100,VALID,0.0169808,VALID,19.9359,VALID,144,VALID,0.879616,
2009-07-20, 01:35:00,VALID,917.526,VALID,0,VALID,100,VALID,0.0169808,VALID,19.9489,VALID,137,VALID,0.952934,
2009-07-20, 01:36:00,VALID,917.531,VALID,0,VALID,100,VALID,0.0339617,VALID,19.9654,VALID,144,VALID,0.607013,
2009-07-20, 01:37:00,VALID,917.53,VALID,0,VALID,100,VALID,0.0339617,VALID,19.9781,VALID,143,VALID,0.593945,
2009-07-20, 01:38:00,VALID,917.522,VALID,0,VALID,100,VALID,0.0169808,VALID,19.9978,VALID,150,VALID,0.536086,
2009-07-20, 01:39:00,VALID,917.528,VALID,0,VALID,100,VALID,0.0169808,VALID,20.0108,VALID,142,VALID,0.613281,
2009-07-20, 01:40:00,VALID,917.517,VALID,0,VALID,100,VALID,0,VALID,20.024,VALID,149,VALID,0.626042,
2009-07-20, 01:41:00,VALID,917.5,VALID,0,VALID,100,VALID,0.0169808,VALID,20.0305,VALID,166,VALID,0.88205,
2009-07-20, 01:42:00,VALID,917.46,VALID,0,VALID,100,VALID,0,VALID,20.0315,VALID,161,VALID,0.894259,
2009-07-20, 01:43:00,VALID,917.448,VALID,0,VALID,100,VALID,-0.0169808,VALID,20.0283,VALID,172,VALID,0.861471,
2009-07-20, 01:44:00,VALID,917.448,VALID,0,VALID,100,VALID,0,VALID,20.0318,VALID,167,VALID,0.609549,
2009-07-20, 01:45:00,VALID,917.434,VALID,0,VALID,100,VALID,-0.0509425,VALID,20.038,VALID,176,VALID,0.46657,
2009-07-20, 01:46:00,VALID,917.435,VALID,0,VALID,100,VALID,0,VALID,20.0448,VALID,176,VALID,0,
2009-07-20, 01:47:00,VALID,917.435,VALID,0,VALID,100,VALID,0,VALID,20.0545,VALID,179,VALID,0.300037,
2009-07-20, 01:48:00,VALID,917.42,VALID,0,VALID,100,VALID,-0.0169808,VALID,20.0348,VALID,183,VALID,0.3625,
2009-07-20, 01:49:00,VALID,917.407,VALID,0,VALID,100,VALID,-0.0169808,VALID,20.035,VALID,183,VALID,0.503452,
2009-07-20, 01:50:00,VALID,917.391,VALID,0,VALID,100,VALID,-0.0169808,VALID,20.0253,VALID,183,VALID,0.560865,
2009-07-20, 01:51:00,VALID,917.374,VALID,0,VALID,100,VALID,-0.0169808,VALID,20.0051,VALID,183,VALID,0.579102,
2009-07-20, 01:52:00,VALID,917.362,VALID,0,VALID,100,VALID,0,VALID,19.9853,VALID,183,VALID,0.504906,
2009-07-20, 01:53:00,VALID,917.368,VALID,0,VALID,100,VALID,0,VALID,19.9664,VALID,183,VALID,0.046131,
2009-07-20, 01:54:00,VALID,917.367,VALID,0,VALID,100,VALID,0,VALID,19.9701,VALID,183,VALID,0,
2009-07-20, 01:55:00,VALID,917.321,VALID,0,VALID,100,VALID,0,VALID,19.9601,VALID,183,VALID,0,
2009-07-20, 01:56:00,VALID,917.298,VALID,0,VALID,100,VALID,-0.0169808,VALID,19.9601,VALID,182,VALID,0.0243676,
2009-07-20, 01:57:00,VALID,917.278,VALID,0,VALID,100,VALID,0.0169808,VALID,19.9372,VALID,181,VALID,0.795277,
2009-07-20, 01:58:00,VALID,917.272,VALID,0,VALID,100,VALID,0,VALID,19.9212,VALID,182,VALID,0.673363,
2009-07-20, 01:59:00,VALID,917.277,VALID,0,VALID,100,VALID,-0.0169808,VALID,19.911,VALID,182,VALID,0.471112,
2009-07-20, 02:00:00,VALID,917.275,VALID,0,VALID,100,VALID,0,VALID,19.892,VALID,171,VALID,0.727628,
2009-07-20, 02:01:00,VALID,917.296,VALID,0,VALID,100,VALID,-0.0169808,VALID,19.8625,VALID,161,VALID,0.48165,
2009-07-20, 02:02:00,VALID,917.293,VALID,0,VALID,100,VALID,0,VALID,19.8493,VALID,161,VALID,0.316319,
2009-07-20, 02:03:00,VALID,917.279,VALID,0,VALID,100,VALID,0,VALID,19.8296,VALID,156,VALID,0.575457,
2009-07-20, 02:04:00,VALID,917.281,VALID,0,VALID,100,VALID,-0.0169808,VALID,19.8303,VALID,152,VALID,0.293056,
2009-07-20, 02:05:00,VALID,917.275,VALID,0,VALID,100,VALID,-0.0169808,VALID,19.8241,VALID,152,VALID,0,
2009-07-20, 02:06:00,VALID,917.265,VALID,0,VALID,100,VALID,-0.0169808,VALID,19.8139,VALID,152,VALID,0,
2009-07-20, 02:07:00,VALID,917.256,VALID,0,VALID,100,VALID,-0.0339617,VALID,19.8171,VALID,152,VALID,0,
2009-07-20, 02:08:00,VALID,917.229,VALID,0,VALID,100,VALID,0,VALID,19.8204,VALID,152,VALID,0,
2009-07-20, 02:09:00,VALID,917.203,VALID,0,VALID,100,VALID,-0.0509425,VALID,19.7976,VALID,152,VALID,0,
2009-07-20, 02:10:00,VALID,917.177,VALID,0,VALID,100,VALID,0,VALID,19.8011,VALID,152,VALID,0,
2009-07-20, 02:11:00,VALID,917.179,VALID,0,VALID,100,VALID,-0.0169808,VALID,19.7877,VALID,152,VALID,0,
2009-07-20, 02:12:00,VALID,917.17,VALID,0,VALID,100,VALID,0.0169808,VALID,19.7842,VALID,152,VALID,0.245536,
2009-07-20, 02:13:00,VALID,917.16,VALID,0,VALID,100,VALID,-0.0169808,VALID,19.755,VALID,152,VALID,0.223611,
2009-07-20, 02:14:00,VALID,917.149,VALID,0,VALID,100,VALID,-0.0169808,VALID,19.7395,VALID,152,VALID,0,
2009-07-20, 02:15:00,VALID,917.148,VALID,0,VALID,100,VALID,0.0169808,VALID,19.7125,VALID,152,VALID,0,
2009-07-20, 02:16:00,VALID,917.143,VALID,0,VALID,100,VALID,0,VALID,19.703,VALID,152,VALID,0.29082,
2009-07-20, 02:17:00,VALID,917.126,VALID,0,VALID,100,VALID,0,VALID,19.6806,VALID,152,VALID,0.206473,
2009-07-20, 02:18:00,VALID,917.146,VALID,0,VALID,100,VALID,0,VALID,19.6743,VALID,152,VALID,0,
2009-07-20, 02:19:00,VALID,917.165,VALID,0,VALID,100,VALID,-0.0169808,VALID,19.6549,VALID,152,VALID,0,
2009-07-20, 02:20:00,VALID,917.198,VALID,0,VALID,100,VALID,-0.0169808,VALID,19.6284,VALID,152,VALID,0,
2009-07-20, 02:21:00,VALID,917.198,VALID,0,VALID,100,VALID,0,VALID,19.6289,VALID,152,VALID,0,
2009-07-20, 02:22:00,VALID,917.205,VALID,0,VALID,100,VALID,0.0169808,VALID,19.6247,VALID,149,VALID,0.286519,
2009-07-20, 02:23:00,VALID,917.194,VALID,0,VALID,100,VALID,0.0339617,VALID,19.6317,VALID,145,VALID,0.555088,
2009-07-20, 02:24:00,VALID,917.197,VALID,0,VALID,100,VALID,0,VALID,19.6387,VALID,137,VALID,0.596946,
2009-07-20, 02:25:00,VALID,917.195,VALID,0,VALID,100,VALID,0,VALID,19.6409,VALID,133,VALID,0.940234,
2009-07-20, 02:26:00,VALID,917.188,VALID,0,VALID,100,VALID,0,VALID,19.6506,VALID,119,VALID,0.90407,
2009-07-20, 02:27:00,VALID,917.183,VALID,0,VALID,100,VALID,-0.0849042,VALID,19.6626,VALID,120,VALID,0.740552,
2009-07-20, 02:28:00,VALID,917.192,VALID,0,VALID,100,VALID,-0.135847,VALID,19.6626,VALID,122,VALID,0.860102,
2009-07-20, 02:29:00,VALID,917.211,VALID,0,VALID,100,VALID,-0.101885,VALID,19.6788,VALID,127,VALID,0.756037,
2009-07-20, 02:30:00,VALID,917.217,VALID,0,VALID,100,VALID,-0.135847,VALID,19.6823,VALID,139,VALID,0.778646,
2009-07-20, 02:31:00,VALID,917.216,VALID,0,VALID,100,VALID,-0.118866,VALID,19.702,VALID,137,VALID,1.01042,
2009-07-20, 02:32:00,VALID,917.224,VALID,0,VALID,100,VALID,-0.152827,VALID,19.7153,VALID,137,VALID,0.604106,
2009-07-20, 02:33:00,VALID,917.21,VALID,0,VALID,100,VALID,-0.118866,VALID,19.7345,VALID,131,VALID,0.993902,
2009-07-20, 02:34:00,VALID,917.185,VALID,0,VALID,100,VALID,-0.135847,VALID,19.728,VALID,143,VALID,1.11031,
2009-07-20, 02:35:00,VALID,917.172,VALID,0,VALID,100,VALID,-0.118866,VALID,19.7505,VALID,140,VALID,1.20276,
2009-07-20, 02:36:00,VALID,917.166,VALID,0,VALID,100,VALID,-0.135847,VALID,19.7567,VALID,144,VALID,1.38372,
2009-07-20, 02:37:00,VALID,917.155,VALID,0,VALID,100,VALID,-0.135847,VALID,19.7597,VALID,141,VALID,1.39902,
2009-07-20, 02:38:00,VALID,917.154,VALID,0,VALID,100,VALID,-0.169808,VALID,19.7832,VALID,148,VALID,1.23619,
2009-07-20, 02:39:00,VALID,917.145,VALID,0,VALID,100,VALID,-0.152827,VALID,19.7964,VALID,151,VALID,1.38887,
2009-07-20, 02:40:00,VALID,917.144,VALID,0,VALID,100,VALID,-0.118866,VALID,19.7929,VALID,141,VALID,1.30593,
2009-07-20, 02:41:00,VALID,917.148,VALID,0,VALID,100,VALID,-0.118866,VALID,19.7799,VALID,128,VALID,1.41243,
2009-07-20, 02:42:00,VALID,917.162,VALID,0,VALID,100,VALID,-0.0509425,VALID,19.752,VALID,118,VALID,1.24609,
2009-07-20, 02:43:00,VALID,917.194,VALID,0,VALID,100,VALID,-0.0339617,VALID,19.732,VALID,121,VALID,1.46573,
2009-07-20, 02:44:00,VALID,917.195,VALID,0,VALID,100,VALID,-0.0169808,VALID,19.7195,VALID,133,VALID,1.45821,
2009-07-20, 02:45:00,VALID,917.178,VALID,0,VALID,100,VALID,-0.0339617,VALID,19.7068,VALID,128,VALID,1.46802,
2009-07-20, 02:46:00,VALID,917.181,VALID,0,VALID,100,VALID,-0.0169808,VALID,19.7063,VALID,125,VALID,1.40536,
2009-07-20, 02:47:00,VALID,917.19,VALID,0,VALID,100,VALID,-0.0339617,VALID,19.7098,VALID,124,VALID,1.29688,
2009-07-20, 02:48:00,VALID,917.182,VALID,0,VALID,100,VALID,0,VALID,19.7098,VALID,103,VALID,0.806076,
2009-07-20, 02:49:00,VALID,917.185,VALID,0,VALID,100,VALID,-0.0509425,VALID,19.716,VALID,87,VALID,0.94566,
2009-07-20, 02:50:00,VALID,917.185,VALID,0,VALID,100,VALID,-0.0339617,VALID,19.7038,VALID,98,VALID,1.07087,
2009-07-20, 02:51:00,VALID,917.16,VALID,0,VALID,100,VALID,-0.0169808,VALID,19.7033,VALID,113,VALID,0.97526,
2009-07-20, 02:52:00,VALID,917.147,VALID,0,VALID,100,VALID,-0.0339617,VALID,19.6773,VALID,116,VALID,0.918605,
2009-07-20, 02:53:00,VALID,917.138,VALID,0,VALID,100,VALID,-0.0339617,VALID,19.6586,VALID,107,VALID,0.966844,
2009-07-20, 02:54:00,VALID,917.141,VALID,0,VALID,100,VALID,-0.0679233,VALID,19.6282,VALID,117,VALID,0.734375,
2009-07-20, 02:55:00,VALID,917.137,VALID,0,VALID,100,VALID,-0.0169808,VALID,19.6324,VALID,128,VALID,0.516868,
2009-07-20, 02:56:00,VALID,917.149,VALID,0,VALID,100,VALID,0,VALID,19.6055,VALID,135,VALID,0.884811,
2009-07-20, 02:57:00,VALID,917.152,VALID,0,VALID,100,VALID,0,VALID,19.5827,VALID,145,VALID,1.08754,
2009-07-20, 02:58:00,VALID,917.152,VALID,0,VALID,100,VALID,0,VALID,19.5795,VALID,146,VALID,0.938388,
2009-07-20, 02:59:00,VALID,917.137,VALID,0,VALID,100,VALID,-0.0339617,VALID,19.5605,VALID,131,VALID,0.974888,
2009-07-20, 03:00:00,VALID,917.102,VALID,0,VALID,100,VALID,-0.0339617,VALID,19.5378,VALID,130,VALID,1.20938,
2009-07-20, 03:01:00,VALID,917.087,VALID,0,VALID,100,VALID,-0.0509425,VALID,19.5381,VALID,136,VALID,0.898828,
2009-07-20, 03:02:00,VALID,917.06,VALID,0,VALID,100,VALID,-0.0169808,VALID,19.5186,VALID,140,VALID,0.84811,
2009-07-20, 03:03:00,VALID,917.069,VALID,0,VALID,100,VALID,-0.0679233,VALID,19.5221,VALID,140,VALID,0.748547,
2009-07-20, 03:04:00,VALID,917.068,VALID,0,VALID,100,VALID,-0.0509425,VALID,19.5121,VALID,148,VALID,0.480841,
2009-07-20, 03:05:00,VALID,917.063,VALID,0,VALID,100,VALID,-0.0679233,VALID,19.5321,VALID,139,VALID,0.759084,
2009-07-20, 03:06:00,VALID,917.048,VALID,0,VALID,100,VALID,-0.0339617,VALID,19.5321,VALID,147,VALID,0.785156,
2009-07-20, 03:07:00,VALID,917.028,VALID,0,VALID,100,VALID,-0.0339617,VALID,19.5253,VALID,137,VALID,0.50558,
2009-07-20, 03:08:00,VALID,917.038,VALID,0,VALID,100,VALID,-0.0509425,VALID,19.5124,VALID,133,VALID,0.793857,
2009-07-20, 03:09:00,VALID,917.026,VALID,0,VALID,100,VALID,-0.0169808,VALID,19.4854,VALID,119,VALID,0.844283,
2009-07-20, 03:10:00,VALID,917.024,VALID,0,VALID,100,VALID,-0.0509425,VALID,19.4565,VALID,122,VALID,0.833097,
2009-07-20, 03:11:00,VALID,917.03,VALID,0,VALID,100,VALID,-0.0169808,VALID,19.4537,VALID,125,VALID,0.668324,
2009-07-20, 03:12:00,VALID,917.024,VALID,0,VALID,100,VALID,-0.0679233,VALID,19.438,VALID,129,VALID,0.795058,
2009-07-20, 03:13:00,VALID,917.026,VALID,0,VALID,100,VALID,-0.0339617,VALID,19.457,VALID,134,VALID,0.964258,
2009-07-20, 03:14:00,VALID,917.017,VALID,0,VALID,100,VALID,-0.0509425,VALID,19.457,VALID,137,VALID,0.71224,
2009-07-20, 03:15:00,VALID,917.021,VALID,0,VALID,100,VALID,-0.0169808,VALID,19.4372,VALID,137,VALID,0.18679,
2009-07-20, 03:16:00,VALID,917.025,VALID,0,VALID,100,VALID,0,VALID,19.4178,VALID,136,VALID,0.415516,
2009-07-20, 03:17:00,VALID,917.038,VALID,0,VALID,100,VALID,-0.0509425,VALID,19.4275,VALID,136,VALID,0.110742,
2009-07-20, 03:18:00,VALID,917.027,VALID,0,VALID,100,VALID,-0.0509425,VALID,19.441,VALID,138,VALID,0.448038,
2009-07-20, 03:19:00,VALID,917.038,VALID,0,VALID,100,VALID,-0.0169808,VALID,19.424,VALID,155,VALID,0.0596591,
2009-07-20, 03:20:00,VALID,917.06,VALID,0,VALID,100,VALID,-0.0169808,VALID,19.4405,VALID,155,VALID,0.0444568,
2009-07-20, 03:21:00,VALID,917.056,VALID,0,VALID,100,VALID,-0.0509425,VALID,19.4275,VALID,157,VALID,0.00230824,
2009-07-20, 03:22:00,VALID,917.063,VALID,0,VALID,100,VALID,-0.0169808,VALID,19.4143,VALID,157,VALID,0,
2009-07-20, 03:23:00,VALID,917.051,VALID,0,VALID,100,VALID,-0.0339617,VALID,19.4215,VALID,157,VALID,0,
2009-07-20, 03:24:00,VALID,917.031,VALID,0,VALID,100,VALID,-0.0679233,VALID,19.421,VALID,157,VALID,0,
2009-07-20, 03:25:00,VALID,917.015,VALID,0,VALID,100,VALID,-0.0339617,VALID,19.414,VALID,157,VALID,0,
2009-07-20, 03:26:00,VALID,917.009,VALID,0,VALID,100,VALID,-0.0339617,VALID,19.3948,VALID,157,VALID,0.0951172,
2009-07-20, 03:27:00,VALID,917.01,VALID,0,VALID,100,VALID,0,VALID,19.3721,VALID,157,VALID,0.0190549,
2009-07-20, 03:28:00,VALID,917.016,VALID,0,VALID,100,VALID,0,VALID,19.3561,VALID,157,VALID,0.226385,
2009-07-20, 03:29:00,VALID,916.995,VALID,0,VALID,100,VALID,0,VALID,19.307,VALID,150,VALID,0.442645,
2009-07-20, 03:30:00,VALID,916.987,VALID,0,VALID,100,VALID,0,VALID,19.2586,VALID,78,VALID,0.839558,
2009-07-20, 03:31:00,VALID,916.974,VALID,0,VALID,100,VALID,0.0509425,VALID,19.2059,VALID,65,VALID,1.13917,
2009-07-20, 03:32:00,VALID,916.997,VALID,0,VALID,100,VALID,0,VALID,19.1253,VALID,63,VALID,1.22313,
2009-07-20, 03:33:00,VALID,917.012,VALID,0,VALID,100,VALID,0.0169808,VALID,19.0861,VALID,62,VALID,1.00248,
2009-07-20, 03:34:00,VALID,917.041,VALID,0,VALID,100,VALID,0,VALID,19.0669,VALID,78,VALID,0.75436,
2009-07-20, 03:35:00,VALID,917.022,VALID,0,VALID,100,VALID,0.0169808,VALID,19.0544,VALID,100,VALID,0.790179,
2009-07-20, 03:36:00,VALID,917.015,VALID,0,VALID,100,VALID,0,VALID,19.031,VALID,129,VALID,0.868823,
2009-07-20, 03:37:00,VALID,917.005,VALID,0,VALID,100,VALID,0,VALID,19.025,VALID,132,VALID,0.891406,
2009-07-20, 03:38:00,VALID,916.992,VALID,0,VALID,100,VALID,0.0169808,VALID,19.0217,VALID,136,VALID,1.07755,
2009-07-20, 03:39:00,VALID,916.982,VALID,0,VALID,100,VALID,0,VALID,19.015,VALID,164,VALID,0.578488,
2009-07-20, 03:40:00,VALID,916.962,VALID,0,VALID,100,VALID,-0.0169808,VALID,19.0018,VALID,129,VALID,0.691576,